Orbital Elements at Epoch 2459000.5 (2020-May-31.0) TDB
Reference: JPL 9 (heliocentric ecliptic J2000)
Element | Value | Uncertainty (1-sigma) | Units |
e | .07516922784376227 | 8.6546e-08 | |
a | 3.114164486132229 | 5.5223e-08 | au |
q | 2.880075146331202 | 3.0633e-07 | au |
i | 10.59009425732517 | 1.1355e-05 | deg |
node | 61.82488292394287 | 3.5811e-05 | deg |
peri | 273.1817502315435 | 8.4526e-05 | deg |
M | 268.3693915934953 | 7.6004e-05 | deg |
tp | 2459511.415193519681 (2021-Oct-23.91519352) | 0.00042312 | TDB |
period | 2007.292899891171 5.50 | 5.3392e-05 1.462e-07 | d yr |
n | .1793460237016322 | 4.7704e-09 | deg/d |
Q | 3.348253825933255 | 5.9374e-08 | au |
|
| | Orbit Determination Parameters
Additional Information
|